Terug naar catalogus

STARLINK-37483

ActiefCommunicatieSSO
NORAD 68856·PAYLOAD·🇺🇸 United States

Gelanceerd Apr 26, 2026 vanaf Vandenberg Space Force Base

Loading…

Volgende Passages (komende 24 uur)

TLE

VersSource: CelesTrak SupGP

Epoch: Sep 15, 2026, 03:15 UTC

1 68856C 26094T   26258.13590278 -.00055720  00000+0 -17305-2 0  2588
2 68856  97.2835 271.3711 0001677  90.0362  61.4187 15.33452318    15

Volg STARLINK-37483 in realtime met AllMySat

Download on the App Store